Time,TemperatureF,DewpointF,PressureIn,WindDirection,WindDirectionDegrees,WindSpeedMPH,WindSpeedGustMPH,Humidity,HourlyPrecipIn,Conditions,Clouds,dailyrainin,SoftwareType,DateUTC
2016-09-28 00:10:00,72.0,-99.9,-100.00,North,-9999,0.0,0.0,-999,-99.99,,,-99.99,,2016-09-28 07:10:00,
2016-09-28 00:15:00,72.0,-99.9,-100.00,North,-9999,0.0,0.0,-999,-99.99,,,-99.99,,2016-09-28 07:15:00,
2016-09-28 00:26:00,71.0,-99.9,-100.00,North,-9999,0.0,0.0,-999,-99.99,,,-99.99,,2016-09-28 07:26:00,
2016-09-28 01:24:00,71.0,-99.9,-100.00,SE,126,1.0,1.0,-999,-99.99,,,-99.99,,2016-09-28 08:24:00,
2016-09-28 01:40:00,73.0,-99.9,-100.00,North,-9999,0.0,0.0,-999,-99.99,,,-99.99,,2016-09-28 08:40:00,
2016-09-28 02:04:00,73.0,-99.9,-100.00,North,-9999,0.0,0.0,-999,-99.99,,,-99.99,,2016-09-28 09:04:00,
2016-09-28 02:14:00,73.0,-99.9,-100.00,North,-9999,0.0,0.0,-999,-99.99,,,-99.99,,2016-09-28 09:14:00,
2016-09-28 02:24:00,73.0,-99.9,-100.00,North,-9999,0.0,0.0,-999,-99.99,,,-99.99,,2016-09-28 09:24:00,
2016-09-28 02:35:00,70.0,-99.9,-100.00,North,-9999,0.0,0.0,-999,-99.99,,,-99.99,,2016-09-28 09:35:00,
2016-09-28 03:15:00,69.0,-99.9,-100.00,SE,131,6.0,10.0,-999,-99.99,,,-99.99,,2016-09-28 10:15:00,
2016-09-28 03:16:00,69.0,-99.9,-100.00,North,-9999,0.0,0.0,-999,-99.99,,,-99.99,,2016-09-28 10:16:00,
2016-09-28 03:25:00,70.0,-99.9,-100.00,North,-9999,0.0,-999.0,-999,-99.99,,,-99.99,,2016-09-28 10:25:00,
2016-09-28 04:05:00,68.0,-99.9,-100.00,North,-9999,0.0,2.0,-999,-99.99,,,-99.99,,2016-09-28 11:05:00,
2016-09-28 04:07:00,69.0,-99.9,-100.00,SE,131,6.0,10.0,-999,-99.99,,,-99.99,,2016-09-28 11:07:00,
2016-09-28 04:29:00,70.0,-99.9,-100.00,SE,140,2.0,-999.0,-999,-99.99,,,-99.99,,2016-09-28 11:29:00,
2016-09-28 04:47:00,70.0,-99.9,-100.00,WSW,248,1.0,1.0,-999,-99.99,,,-99.99,,2016-09-28 11:47:00,
2016-09-28 04:57:00,68.0,-99.9,-100.00,North,-9999,0.0,2.0,-999,-99.99,,,-99.99,,2016-09-28 11:57:00,
2016-09-28 05:00:00,68.0,-99.9,-100.00,ESE,122,1.0,1.0,-999,-99.99,,,-99.99,,2016-09-28 12:00:00,
2016-09-28 05:40:00,67.0,-99.9,-100.00,ESE,120,7.0,8.0,-999,-99.99,,,-99.99,,2016-09-28 12:40:00,
2016-09-28 05:41:00,68.0,-99.9,-100.00,ESE,122,1.0,1.0,-999,-99.99,,,-99.99,,2016-09-28 12:41:00,
2016-09-28 05:50:00,68.0,-99.9,-100.00,ESE,122,1.0,1.0,-999,-99.99,,,-99.99,,2016-09-28 12:50:00,
2016-09-28 05:57:00,68.0,-99.9,-100.00,ESE,122,1.0,1.0,-999,-99.99,,,-99.99,,2016-09-28 12:57:00,
2016-09-28 06:28:00,67.0,-99.9,-100.00,ESE,120,7.0,8.0,-999,-99.99,,,-99.99,,2016-09-28 13:28:00,
2016-09-28 06:38:00,67.0,-99.9,-100.00,ESE,120,7.0,8.0,-999,-99.99,,,-99.99,,2016-09-28 13:38:00,
2016-09-28 07:01:00,69.0,-99.9,-100.00,SE,140,3.0,3.0,-999,-99.99,,,-99.99,,2016-09-28 14:01:00,
2016-09-28 07:14:00,69.0,-99.9,-100.00,SE,140,3.0,3.0,-999,-99.99,,,-99.99,,2016-09-28 14:14:00,
2016-09-28 07:25:00,69.0,-99.9,-100.00,SE,134,4.0,4.0,-999,-99.99,,,-99.99,,2016-09-28 14:25:00,
2016-09-28 07:35:00,69.0,-99.9,-100.00,SE,134,4.0,4.0,-999,-99.99,,,-99.99,,2016-09-28 14:35:00,
2016-09-28 08:05:00,76.0,-99.9,-100.00,East,95,2.0,2.0,-999,-99.99,,,-99.99,,2016-09-28 15:05:00,
2016-09-28 08:24:00,73.0,-99.9,-100.00,SE,137,8.0,9.0,-999,-99.99,,,-99.99,,2016-09-28 15:24:00,
2016-09-28 08:35:00,74.0,-99.9,-100.00,SE,127,2.0,2.0,-999,-99.99,,,-99.99,,2016-09-28 15:35:00,
2016-09-28 09:26:00,77.0,-99.9,-100.00,East,98,5.0,-999.0,-999,-99.99,,,-99.99,,2016-09-28 16:26:00,
2016-09-28 10:09:00,82.0,-99.9,-100.00,East,95,7.0,7.0,-999,-99.99,,,-99.99,,2016-09-28 17:09:00,
2016-09-28 10:26:00,82.0,-99.9,-100.00,East,101,5.0,5.0,-999,-99.99,,,-99.99,,2016-09-28 17:26:00,
2016-09-28 11:05:00,85.0,-99.9,-100.00,East,89,5.0,5.0,-999,-99.99,,,-99.99,,2016-09-28 18:05:00,
2016-09-28 11:10:00,84.0,-99.9,-100.00,ESE,123,4.0,4.0,-999,-99.99,,,-99.99,,2016-09-28 18:10:00,
2016-09-28 11:16:00,84.0,-99.9,-100.00,ESE,123,4.0,4.0,-999,-99.99,,,-99.99,,2016-09-28 18:16:00,
2016-09-28 11:45:00,87.0,-99.9,-100.00,SE,126,5.0,5.0,-999,-99.99,,,-99.99,,2016-09-28 18:45:00,
2016-09-28 12:40:00,87.0,-99.9,-100.00,SE,126,5.0,5.0,-999,-99.99,,,-99.99,,2016-09-28 19:40:00,
2016-09-28 13:24:00,91.0,-99.9,-100.00,East,85,4.0,4.0,-999,-99.99,,,-99.99,,2016-09-28 20:24:00,
2016-09-28 13:35:00,91.0,-99.9,-100.00,South,179,3.0,3.0,-999,-99.99,,,-99.99,,2016-09-28 20:35:00,
2016-09-28 13:45:00,91.0,-99.9,-100.00,South,179,3.0,3.0,-999,-99.99,,,-99.99,,2016-09-28 20:45:00,
2016-09-28 13:55:00,92.0,-99.9,-100.00,ENE,71,7.0,7.0,-999,-99.99,,,-99.99,,2016-09-28 20:55:00,
2016-09-28 14:04:00,92.0,-99.9,-100.00,ENE,71,7.0,7.0,-999,-99.99,,,-99.99,,2016-09-28 21:04:00,
2016-09-28 14:14:00,92.0,-99.9,-100.00,ENE,71,7.0,7.0,-999,-99.99,,,-99.99,,2016-09-28 21:14:00,
2016-09-28 14:35:00,92.0,-99.9,-100.00,NE,52,2.0,2.0,-999,-99.99,,,-99.99,,2016-09-28 21:35:00,
2016-09-28 14:55:00,91.0,-99.9,-100.00,NNE,16,1.0,4.0,-999,-99.99,,,-99.99,,2016-09-28 21:55:00,
2016-09-28 15:05:00,91.0,-99.9,-100.00,NE,42,3.0,-999.0,-999,-99.99,,,-99.99,,2016-09-28 22:05:00,
2016-09-28 15:15:00,91.0,-99.9,-100.00,NE,42,3.0,3.0,-999,-99.99,,,-99.99,,2016-09-28 22:15:00,
2016-09-28 15:25:00,91.0,-99.9,-100.00,East,101,1.0,5.0,-999,-99.99,,,-99.99,,2016-09-28 22:25:00,
2016-09-28 15:30:00,91.0,-99.9,-100.00,NNE,21,2.0,2.0,-999,-99.99,,,-99.99,,2016-09-28 22:30:00,
2016-09-28 15:37:00,91.0,-99.9,-100.00,NNE,16,1.0,4.0,-999,-99.99,,,-99.99,,2016-09-28 22:37:00,
2016-09-28 16:37:00,91.0,-99.9,-100.00,ENE,66,2.0,2.0,-999,-99.99,,,-99.99,,2016-09-28 23:37:00,
2016-09-28 16:49:00,92.0,-99.9,-100.00,NE,39,2.0,2.0,-999,-99.99,,,-99.99,,2016-09-28 23:49:00,
2016-09-28 16:59:00,92.0,-99.9,-100.00,NE,39,2.0,2.0,-999,-99.99,,,-99.99,,2016-09-28 23:59:00,
2016-09-28 17:05:00,93.0,-99.9,-100.00,NNW,339,2.0,2.0,-999,-99.99,,,-99.99,,2016-09-29 00:05:00,
2016-09-28 17:09:00,93.0,-99.9,-100.00,NE,39,3.0,3.0,-999,-99.99,,,-99.99,,2016-09-29 00:09:00,
2016-09-28 17:16:00,93.0,-99.9,-100.00,NE,39,3.0,3.0,-999,-99.99,,,-99.99,,2016-09-29 00:16:00,
2016-09-28 17:26:00,93.0,-99.9,-100.00,North,6,4.0,4.0,-999,-99.99,,,-99.99,,2016-09-29 00:26:00,
2016-09-28 17:49:00,94.0,-99.9,-100.00,North,359,5.0,5.0,-999,-99.99,,,-99.99,,2016-09-29 00:49:00,
2016-09-28 17:55:00,92.0,-99.9,-100.00,NNE,24,1.0,1.0,-999,-99.99,,,-99.99,,2016-09-29 00:55:00,
2016-09-28 17:57:00,93.0,-99.9,-100.00,NNW,339,2.0,2.0,-999,-99.99,,,-99.99,,2016-09-29 00:57:00,
2016-09-28 18:20:00,91.0,-99.9,-100.00,NNW,329,4.0,4.0,-999,-99.99,,,-99.99,,2016-09-29 01:20:00,
2016-09-28 18:27:00,92.0,-99.9,-100.00,North,10,2.0,2.0,-999,-99.99,,,-99.99,,2016-09-29 01:27:00,
2016-09-28 18:37:00,92.0,-99.9,-100.00,NNE,24,1.0,1.0,-999,-99.99,,,-99.99,,2016-09-29 01:37:00,
2016-09-28 18:46:00,92.0,-99.9,-100.00,NNE,24,1.0,1.0,-999,-99.99,,,-99.99,,2016-09-29 01:46:00,
2016-09-28 18:55:00,90.0,-99.9,-100.00,WNW,291,1.0,1.0,-999,-99.99,,,-99.99,,2016-09-29 01:55:00,
2016-09-28 19:04:00,91.0,-99.9,-100.00,NNW,329,4.0,4.0,-999,-99.99,,,-99.99,,2016-09-29 02:04:00,
2016-09-28 19:14:00,91.0,-99.9,-100.00,NNW,329,4.0,4.0,-999,-99.99,,,-99.99,,2016-09-29 02:14:00,
2016-09-28 19:34:00,90.0,-99.9,-100.00,WNW,291,1.0,1.0,-999,-99.99,,,-99.99,,2016-09-29 02:34:00,
2016-09-28 19:45:00,90.0,-99.9,-100.00,WNW,291,1.0,1.0,-999,-99.99,,,-99.99,,2016-09-29 02:45:00,
2016-09-28 20:04:00,89.0,-99.9,-100.00,WNW,290,3.0,3.0,-999,-99.99,,,-99.99,,2016-09-29 03:04:00,
2016-09-28 20:14:00,89.0,-99.9,-100.00,WNW,290,3.0,3.0,-999,-99.99,,,-99.99,,2016-09-29 03:14:00,
2016-09-28 20:24:00,86.0,-99.9,-100.00,WNW,301,4.0,4.0,-999,-99.99,,,-99.99,,2016-09-29 03:24:00,
2016-09-28 20:25:00,87.0,-99.9,-100.00,WSW,244,1.0,1.0,-999,-99.99,,,-99.99,,2016-09-29 03:25:00,
2016-09-28 20:35:00,88.0,-99.9,-100.00,West,271,2.0,2.0,-999,-99.99,,,-99.99,,2016-09-29 03:35:00,
2016-09-28 21:05:00,87.0,-99.9,-100.00,WSW,244,1.0,1.0,-999,-99.99,,,-99.99,,2016-09-29 04:05:00,
2016-09-28 21:15:00,87.0,-99.9,-100.00,WSW,244,1.0,1.0,-999,-99.99,,,-99.99,,2016-09-29 04:15:00,
2016-09-28 22:21:00,87.0,-99.9,-100.00,South,185,6.0,6.0,-999,-99.99,,,-99.99,,2016-09-29 05:21:00,
2016-09-28 22:28:00,86.0,-99.9,-100.00,SW,224,9.0,9.0,-999,-99.99,,,-99.99,,2016-09-29 05:28:00,